GEFSGL_prec_meanprecacc_228.txt.gz
Total_Precipitation_Accumulation
0.67 0.70 0.77 0.87 0.85 0.83 0.80 0.75 0.71 0.72 0.80 0.82 0.81 0.87 0.91 0.93 0.94 1.00 0.99 0.94 0.91 0.87 0.83 0.85 0.86 0.90 0.96 0.95 0.91 0.87 0.84 0.93 0.94 0.48 0.35 0.40 0.49 0.53 0.53 0.49 0.45 0.43 0.45
0.68 0.70 0.73 0.84 0.91 0.89 0.94 0.91 0.81 0.73 0.75 0.81 0.85 0.87 0.95 0.99 0.98 1.02 1.06 1.06 1.10 1.06 0.97 0.93 0.91 0.93 0.99 1.03 1.10 1.06 0.96 0.89 0.96 0.75 0.48 0.46 0.56 0.62 0.64 0.63 0.58 0.52 0.48
0.67 0.72 0.75 0.79 0.88 0.90 0.93 1.00 0.99 0.96 0.97 0.97 1.00 1.04 1.07 1.11 1.15 1.17 1.19 1.23 1.28 1.28 1.22 1.17 1.07 1.04 1.08 1.07 1.11 1.13 1.05 0.97 0.93 0.89 0.68 0.59 0.63 0.65 0.73 0.75 0.73 0.70 0.63
0.65 0.76 0.78 0.81 0.82 0.86 0.91 0.96 1.09 1.17 1.25 1.30 1.28 1.27 1.28 1.34 1.46 1.54 1.52 1.50 1.46 1.42 1.39 1.36 1.30 1.23 1.22 1.21 1.23 1.18 1.12 1.12 1.07 1.03 0.90 0.77 0.75 0.72 0.80 0.86 0.88 0.85 0.80
0.61 0.71 0.77 0.83 0.93 1.00 1.02 1.05 1.10 1.23 1.32 1.33 1.35 1.37 1.36 1.53 1.83 1.95 1.79 1.58 1.44 1.37 1.32 1.31 1.34 1.43 1.45 1.48 1.54 1.43 1.33 1.36 1.30 1.24 1.09 0.91 0.81 0.84 0.89 0.90 1.01 0.98 0.93
0.57 0.65 0.73 0.87 0.98 1.11 1.13 1.18 1.20 1.25 1.34 1.36 1.32 1.33 1.32 1.43 1.83 1.95 1.59 1.28 1.19 1.25 1.25 1.18 1.16 1.32 1.38 1.46 1.58 1.58 1.58 1.62 1.61 1.49 1.32 1.13 0.90 0.85 0.93 1.09 1.21 1.29 1.22
0.48 0.60 0.67 0.81 0.94 1.04 1.07 1.11 1.15 1.09 1.08 1.18 1.24 1.18 1.14 1.22 1.56 1.66 1.37 0.99 0.88 0.97 1.03 1.03 1.01 1.07 1.24 1.20 1.29 1.34 1.41 1.53 1.66 1.70 1.65 1.34 1.11 1.01 1.18 1.32 1.34 1.41 1.33
0.42 0.55 0.59 0.69 0.83 0.90 0.96 1.01 1.03 0.97 0.95 1.04 1.07 0.98 0.91 0.95 1.27 1.41 1.21 0.87 0.81 0.87 0.91 0.93 0.92 0.93 1.08 1.26 1.30 1.18 1.11 1.21 1.44 1.60 1.71 1.54 1.36 1.34 1.53 1.74 1.79 1.78 1.63
0.35 0.46 0.53 0.62 0.78 0.79 0.85 0.95 0.94 0.95 0.92 0.90 0.89 0.84 0.77 0.78 1.05 1.33 1.21 0.83 0.86 0.88 0.89 0.94 0.89 0.84 1.09 1.28 1.27 1.18 1.06 1.06 1.18 1.46 1.63 1.67 1.68 1.76 1.93 2.18 2.32 2.36 2.20
0.32 0.39 0.44 0.50 0.65 0.68 0.70 0.76 0.78 0.81 0.83 0.84 0.82 0.77 0.74 0.70 0.87 1.24 1.28 0.89 0.86 0.85 0.86 0.91 1.03 1.02 1.15 1.22 1.14 1.16 1.18 1.05 0.94 1.02 1.13 1.21 1.25 1.35 1.65 1.89 2.12 2.35 2.31
0.29 0.33 0.38 0.42 0.50 0.54 0.59 0.62 0.67 0.71 0.75 0.80 0.81 0.74 0.66 0.66 0.74 1.02 1.37 1.11 0.91 0.83 0.85 0.89 0.93 1.07 1.10 1.16 1.19 1.17 1.28 1.12 0.95 1.01 1.05 1.03 1.06 1.16 1.31 1.53 1.85 2.12 2.31
0.27 0.32 0.36 0.41 0.43 0.47 0.51 0.57 0.59 0.67 0.77 0.81 0.78 0.76 0.68 0.65 0.71 0.90 1.17 1.27 1.12 0.92 0.87 0.76 0.78 0.94 0.99 1.08 1.11 1.16 1.21 1.17 1.10 1.12 1.10 1.06 1.06 1.14 1.23 1.34 1.55 1.79 1.95
0.28 0.32 0.38 0.41 0.39 0.46 0.52 0.58 0.62 0.69 0.79 0.81 0.77 0.75 0.72 0.71 0.77 0.97 0.98 1.04 1.14 1.01 0.95 0.96 0.87 0.91 0.94 0.91 0.95 1.07 1.09 1.04 1.13 1.13 1.03 0.97 0.97 1.05 1.11 1.20 1.30 1.48 1.66
0.27 0.30 0.36 0.43 0.44 0.44 0.50 0.58 0.63 0.68 0.82 0.88 0.85 0.81 0.74 0.73 0.85 1.07 1.00 0.94 1.04 1.05 1.03 1.00 0.96 0.96 0.95 0.90 0.91 0.93 0.91 0.96 1.05 1.03 0.93 0.85 0.85 0.95 1.07 1.17 1.28 1.38 1.57
0.26 0.29 0.35 0.44 0.48 0.45 0.47 0.53 0.60 0.63 0.83 1.00 0.94 0.94 0.92 0.93 1.02 1.23 1.22 1.16 1.18 1.20 1.19 1.16 1.08 1.05 1.03 0.95 0.89 0.85 0.87 0.93 0.97 0.90 0.88 0.86 0.86 0.92 1.01 1.08 1.25 1.36 1.50
0.32 0.34 0.38 0.46 0.48 0.46 0.47 0.51 0.59 0.62 0.70 0.74 0.81 0.90 0.89 0.99 1.05 1.02 1.09 1.14 1.17 1.22 1.24 1.19 1.01 0.91 0.90 0.86 0.84 0.84 0.82 0.80 0.79 0.82 0.86 0.85 0.87 0.91 0.95 1.00 1.17 1.32 1.39
0.36 0.39 0.43 0.47 0.47 0.47 0.46 0.49 0.55 0.54 0.57 0.61 0.67 0.75 0.87 0.95 0.91 0.90 0.96 0.99 1.01 1.01 0.99 0.89 0.81 0.81 0.80 0.79 0.78 0.78 0.78 0.72 0.71 0.77 0.80 0.79 0.82 0.87 0.91 0.95 1.03 1.15 1.24
0.36 0.41 0.46 0.47 0.47 0.45 0.43 0.45 0.51 0.56 0.62 0.65 0.70 0.77 0.85 0.90 0.89 0.90 0.96 1.01 1.01 0.93 0.80 0.76 0.76 0.75 0.76 0.77 0.78 0.78 0.76 0.74 0.75 0.77 0.77 0.77 0.81 0.88 0.91 0.90 0.93 1.03 1.11
0.39 0.42 0.46 0.48 0.46 0.41 0.40 0.43 0.46 0.51 0.59 0.68 0.75 0.82 0.90 0.90 0.89 0.90 0.90 0.87 0.85 0.82 0.78 0.74 0.72 0.72 0.75 0.79 0.81 0.79 0.80 0.79 0.76 0.78 0.78 0.77 0.78 0.84 0.86 0.80 0.83 0.94 1.06
0.41 0.50 0.54 0.51 0.48 0.43 0.42 0.45 0.48 0.52 0.59 0.66 0.75 0.81 0.93 0.99 0.93 0.91 0.82 0.77 0.82 0.82 0.79 0.78 0.73 0.71 0.78 0.83 0.87 0.87 0.85 0.81 0.78 0.78 0.74 0.71 0.71 0.75 0.78 0.74 0.77 0.85 0.92
0.46 0.49 0.54 0.54 0.51 0.50 0.52 0.53 0.54 0.58 0.64 0.67 0.71 0.81 1.05 1.05 0.90 0.77 0.73 0.72 0.76 0.81 0.81 0.80 0.79 0.80 0.82 0.86 0.86 0.85 0.85 0.80 0.76 0.76 0.75 0.70 0.68 0.70 0.69 0.71 0.72 0.75 0.81
0.48 0.50 0.49 0.51 0.56 0.59 0.61 0.61 0.62 0.63 0.65 0.68 0.69 0.75 0.86 0.81 0.74 0.70 0.69 0.68 0.69 0.73 0.78 0.85 0.84 0.81 0.82 0.87 0.89 0.86 0.81 0.75 0.69 0.69 0.71 0.68 0.66 0.66 0.65 0.67 0.68 0.71 0.75
0.52 0.55 0.53 0.54 0.58 0.65 0.64 0.59 0.63 0.65 0.69 0.72 0.73 0.74 0.74 0.74 0.72 0.69 0.69 0.69 0.69 0.68 0.71 0.80 0.83 0.77 0.74 0.77 0.80 0.83 0.81 0.72 0.64 0.65 0.71 0.71 0.66 0.62 0.63 0.64 0.62 0.66 0.71
0.55 0.56 0.57 0.61 0.64 0.64 0.64 0.64 0.65 0.67 0.74 0.80 0.79 0.77 0.76 0.75 0.73 0.68 0.66 0.67 0.68 0.67 0.69 0.74 0.75 0.72 0.70 0.72 0.73 0.72 0.71 0.71 0.72 0.71 0.70 0.70 0.66 0.61 0.63 0.65 0.63 0.63 0.67
0.55 0.56 0.60 0.66 0.70 0.69 0.70 0.70 0.70 0.72 0.77 0.82 0.83 0.81 0.77 0.75 0.71 0.68 0.64 0.65 0.68 0.68 0.67 0.68 0.71 0.70 0.67 0.65 0.67 0.69 0.76 0.83 0.89 0.95 1.01 0.99 0.85 0.72 0.70 0.70 0.66 0.63 0.65
0.54 0.57 0.62 0.69 0.75 0.75 0.76 0.76 0.74 0.76 0.82 0.84 0.82 0.81 0.79 0.77 0.73 0.71 0.70 0.70 0.73 0.72 0.69 0.65 0.65 0.68 0.69 0.66 0.66 0.72 0.79 0.84 0.96 1.15 1.32 1.33 1.08 0.83 0.73 0.73 0.67 0.65 0.67

GEFSGL_prec_meanprecacc_234.txt.gz
Total_Precipitation_Accumulation
0.68 0.71 0.77 0.87 0.85 0.83 0.81 0.75 0.72 0.73 0.80 0.82 0.82 0.88 0.92 0.94 0.95 1.01 1.01 0.97 0.95 0.91 0.88 0.89 0.90 0.92 0.99 0.98 0.93 0.89 0.86 0.95 0.97 0.50 0.37 0.41 0.50 0.55 0.55 0.51 0.46 0.45 0.47
0.68 0.71 0.73 0.84 0.92 0.90 0.94 0.92 0.81 0.74 0.75 0.82 0.86 0.88 0.96 1.01 1.00 1.04 1.08 1.09 1.13 1.10 1.00 0.96 0.95 0.97 1.02 1.05 1.11 1.08 0.98 0.92 0.99 0.79 0.51 0.50 0.60 0.65 0.67 0.66 0.60 0.54 0.50
0.67 0.72 0.76 0.80 0.88 0.91 0.93 1.01 1.00 0.97 0.98 0.97 1.01 1.05 1.08 1.13 1.17 1.19 1.21 1.26 1.32 1.32 1.26 1.20 1.10 1.07 1.11 1.09 1.12 1.14 1.08 1.00 0.96 0.92 0.71 0.61 0.64 0.66 0.74 0.76 0.74 0.71 0.64
0.65 0.77 0.78 0.81 0.83 0.87 0.92 0.97 1.10 1.18 1.26 1.31 1.29 1.28 1.30 1.35 1.47 1.55 1.54 1.53 1.50 1.46 1.43 1.40 1.33 1.26 1.24 1.22 1.24 1.19 1.13 1.13 1.08 1.05 0.91 0.79 0.77 0.73 0.82 0.88 0.90 0.86 0.81
0.61 0.72 0.78 0.83 0.93 1.00 1.02 1.05 1.10 1.23 1.33 1.34 1.37 1.39 1.37 1.55 1.84 1.96 1.81 1.60 1.47 1.40 1.35 1.33 1.37 1.45 1.46 1.49 1.56 1.44 1.34 1.37 1.31 1.25 1.11 0.93 0.83 0.85 0.90 0.91 1.03 0.99 0.95
0.59 0.66 0.74 0.87 0.99 1.11 1.13 1.18 1.20 1.25 1.35 1.36 1.34 1.36 1.34 1.44 1.85 1.97 1.61 1.29 1.21 1.27 1.27 1.19 1.18 1.33 1.39 1.46 1.59 1.59 1.59 1.63 1.62 1.50 1.34 1.15 0.92 0.87 0.94 1.10 1.23 1.31 1.24
0.51 0.62 0.68 0.81 0.94 1.04 1.08 1.11 1.15 1.10 1.08 1.18 1.25 1.20 1.16 1.24 1.58 1.68 1.39 1.00 0.90 0.99 1.04 1.04 1.01 1.07 1.24 1.21 1.30 1.35 1.42 1.54 1.68 1.72 1.68 1.37 1.13 1.02 1.19 1.34 1.36 1.43 1.36
0.45 0.57 0.60 0.70 0.84 0.91 0.97 1.02 1.03 0.97 0.95 1.05 1.08 1.00 0.93 0.97 1.29 1.43 1.23 0.88 0.83 0.88 0.92 0.94 0.92 0.93 1.08 1.26 1.30 1.19 1.12 1.22 1.45 1.61 1.74 1.56 1.37 1.35 1.56 1.76 1.81 1.80 1.66
0.38 0.48 0.54 0.62 0.78 0.80 0.86 0.96 0.95 0.96 0.94 0.92 0.91 0.86 0.79 0.81 1.07 1.34 1.22 0.84 0.87 0.88 0.89 0.94 0.90 0.84 1.09 1.29 1.28 1.19 1.07 1.07 1.19 1.47 1.64 1.68 1.69 1.78 1.95 2.21 2.34 2.39 2.23
0.35 0.42 0.46 0.51 0.65 0.68 0.70 0.77 0.81 0.83 0.86 0.87 0.84 0.79 0.75 0.72 0.89 1.25 1.29 0.89 0.87 0.86 0.87 0.92 1.04 1.02 1.16 1.23 1.16 1.18 1.20 1.06 0.95 1.03 1.14 1.22 1.26 1.36 1.67 1.91 2.15 2.38 2.34
0.31 0.36 0.40 0.44 0.51 0.55 0.60 0.64 0.69 0.73 0.77 0.82 0.82 0.75 0.67 0.67 0.75 1.03 1.37 1.12 0.92 0.84 0.85 0.90 0.94 1.08 1.12 1.17 1.21 1.19 1.30 1.14 0.96 1.02 1.06 1.05 1.08 1.17 1.33 1.56 1.89 2.17 2.36
0.29 0.34 0.38 0.42 0.44 0.48 0.53 0.59 0.61 0.69 0.79 0.81 0.79 0.77 0.70 0.67 0.72 0.91 1.18 1.28 1.12 0.93 0.87 0.76 0.79 0.96 1.01 1.10 1.12 1.18 1.23 1.18 1.11 1.13 1.11 1.07 1.08 1.15 1.25 1.37 1.59 1.83 2.00
0.30 0.34 0.40 0.43 0.40 0.47 0.53 0.60 0.64 0.70 0.80 0.82 0.78 0.76 0.74 0.72 0.79 0.98 1.00 1.05 1.15 1.02 0.95 0.97 0.89 0.93 0.96 0.92 0.97 1.08 1.10 1.05 1.13 1.14 1.04 0.99 0.99 1.07 1.13 1.23 1.32 1.51 1.70
0.29 0.33 0.39 0.46 0.46 0.46 0.51 0.59 0.64 0.69 0.83 0.89 0.86 0.82 0.75 0.73 0.86 1.08 1.01 0.95 1.05 1.06 1.04 1.01 0.98 0.98 0.96 0.90 0.92 0.93 0.92 0.97 1.06 1.04 0.94 0.86 0.87 0.97 1.09 1.20 1.31 1.40 1.60
0.28 0.31 0.37 0.46 0.50 0.47 0.49 0.54 0.61 0.64 0.84 1.01 0.95 0.95 0.93 0.94 1.03 1.24 1.24 1.17 1.20 1.21 1.21 1.18 1.10 1.06 1.04 0.95 0.89 0.86 0.88 0.94 0.98 0.91 0.89 0.88 0.88 0.94 1.03 1.11 1.28 1.39 1.53
0.33 0.35 0.40 0.47 0.50 0.49 0.49 0.53 0.61 0.64 0.71 0.75 0.82 0.92 0.90 1.00 1.07 1.04 1.11 1.16 1.19 1.24 1.26 1.21 1.03 0.93 0.91 0.86 0.85 0.84 0.82 0.81 0.80 0.83 0.87 0.86 0.89 0.94 0.98 1.03 1.20 1.35 1.42
0.37 0.41 0.45 0.48 0.49 0.50 0.48 0.52 0.58 0.57 0.59 0.63 0.69 0.77 0.89 0.97 0.93 0.92 0.99 1.01 1.03 1.03 1.01 0.90 0.83 0.82 0.81 0.79 0.79 0.79 0.79 0.73 0.73 0.79 0.81 0.81 0.84 0.90 0.94 0.98 1.06 1.19 1.26
0.37 0.43 0.48 0.49 0.49 0.48 0.46 0.48 0.53 0.59 0.65 0.67 0.73 0.80 0.88 0.93 0.91 0.92 0.98 1.03 1.02 0.94 0.82 0.78 0.77 0.76 0.76 0.78 0.79 0.79 0.77 0.75 0.77 0.80 0.80 0.79 0.84 0.91 0.93 0.92 0.96 1.07 1.14
0.40 0.44 0.48 0.50 0.49 0.44 0.43 0.46 0.49 0.53 0.62 0.71 0.78 0.85 0.93 0.93 0.90 0.91 0.92 0.88 0.87 0.83 0.78 0.75 0.72 0.72 0.76 0.80 0.82 0.81 0.81 0.80 0.78 0.81 0.81 0.80 0.81 0.87 0.89 0.83 0.85 0.97 1.10
0.43 0.52 0.56 0.54 0.51 0.46 0.45 0.48 0.51 0.55 0.61 0.69 0.78 0.84 0.95 1.00 0.95 0.92 0.83 0.78 0.83 0.83 0.80 0.79 0.74 0.72 0.78 0.84 0.88 0.88 0.87 0.83 0.80 0.81 0.77 0.74 0.74 0.78 0.81 0.77 0.79 0.88 0.95
0.47 0.50 0.57 0.56 0.54 0.52 0.54 0.56 0.57 0.61 0.66 0.69 0.73 0.83 1.07 1.08 0.92 0.79 0.74 0.73 0.78 0.82 0.82 0.81 0.80 0.81 0.83 0.87 0.87 0.87 0.87 0.82 0.79 0.79 0.78 0.74 0.72 0.73 0.72 0.75 0.75 0.78 0.84
0.50 0.52 0.51 0.54 0.58 0.61 0.64 0.63 0.64 0.66 0.67 0.70 0.71 0.77 0.87 0.82 0.76 0.72 0.70 0.70 0.71 0.75 0.80 0.87 0.86 0.82 0.83 0.88 0.90 0.88 0.83 0.77 0.71 0.72 0.74 0.72 0.70 0.69 0.69 0.70 0.71 0.74 0.78
0.54 0.57 0.55 0.56 0.60 0.67 0.67 0.61 0.64 0.67 0.71 0.74 0.74 0.76 0.75 0.75 0.73 0.70 0.71 0.71 0.71 0.70 0.73 0.82 0.85 0.79 0.75 0.78 0.82 0.85 0.83 0.75 0.67 0.68 0.75 0.74 0.70 0.66 0.66 0.67 0.65 0.69 0.74
0.57 0.57 0.59 0.62 0.65 0.66 0.66 0.66 0.67 0.69 0.76 0.81 0.80 0.79 0.78 0.77 0.75 0.70 0.68 0.69 0.70 0.68 0.70 0.76 0.77 0.74 0.71 0.73 0.75 0.74 0.73 0.74 0.75 0.74 0.73 0.73 0.70 0.65 0.67 0.68 0.66 0.65 0.69
0.56 0.58 0.61 0.67 0.71 0.71 0.71 0.71 0.71 0.73 0.79 0.84 0.84 0.83 0.79 0.76 0.73 0.70 0.66 0.67 0.70 0.70 0.68 0.70 0.72 0.72 0.69 0.67 0.69 0.71 0.79 0.86 0.91 0.97 1.03 1.02 0.89 0.75 0.73 0.72 0.68 0.65 0.67
0.55 0.58 0.63 0.71 0.76 0.76 0.77 0.78 0.76 0.77 0.84 0.85 0.83 0.83 0.81 0.79 0.75 0.73 0.72 0.71 0.75 0.73 0.70 0.67 0.66 0.70 0.70 0.68 0.68 0.74 0.82 0.87 0.98 1.17 1.34 1.36 1.11 0.85 0.75 0.75 0.69 0.67 0.69

GEFSGL_prec_meanprecacc_240.txt.gz
Total_Precipitation_Accumulation
0.68 0.71 0.77 0.87 0.85 0.83 0.81 0.76 0.72 0.73 0.80 0.82 0.82 0.88 0.92 0.94 0.95 1.01 1.01 0.97 0.95 0.91 0.88 0.90 0.90 0.93 1.00 1.00 0.96 0.93 0.89 0.98 1.00 0.52 0.38 0.42 0.51 0.55 0.55 0.52 0.47 0.45 0.48
0.68 0.71 0.73 0.84 0.92 0.90 0.94 0.92 0.82 0.74 0.76 0.82 0.86 0.88 0.96 1.01 1.00 1.04 1.08 1.09 1.13 1.10 1.01 0.97 0.96 0.98 1.04 1.07 1.14 1.11 1.02 0.95 1.02 0.81 0.52 0.50 0.60 0.66 0.67 0.66 0.61 0.55 0.50
0.67 0.72 0.76 0.80 0.88 0.91 0.94 1.01 1.00 0.97 0.98 0.97 1.01 1.05 1.08 1.13 1.17 1.19 1.21 1.27 1.33 1.33 1.27 1.22 1.12 1.09 1.14 1.11 1.16 1.18 1.11 1.03 0.99 0.95 0.73 0.63 0.65 0.67 0.75 0.76 0.74 0.72 0.65
0.66 0.77 0.78 0.82 0.83 0.87 0.92 0.98 1.10 1.18 1.26 1.31 1.29 1.29 1.30 1.36 1.48 1.55 1.54 1.53 1.50 1.47 1.44 1.41 1.34 1.28 1.26 1.25 1.27 1.22 1.16 1.17 1.11 1.08 0.94 0.80 0.78 0.74 0.82 0.88 0.91 0.87 0.82
0.61 0.72 0.78 0.84 0.94 1.00 1.03 1.05 1.10 1.24 1.33 1.34 1.37 1.39 1.37 1.55 1.84 1.96 1.81 1.61 1.48 1.41 1.35 1.34 1.38 1.47 1.48 1.51 1.58 1.47 1.36 1.40 1.34 1.27 1.12 0.94 0.84 0.86 0.91 0.93 1.04 1.00 0.95
0.59 0.66 0.74 0.87 0.99 1.11 1.14 1.19 1.21 1.26 1.35 1.37 1.35 1.36 1.34 1.45 1.85 1.97 1.62 1.30 1.23 1.28 1.28 1.20 1.19 1.35 1.41 1.49 1.61 1.61 1.62 1.66 1.64 1.53 1.36 1.17 0.93 0.88 0.95 1.11 1.24 1.32 1.25
0.51 0.62 0.68 0.82 0.95 1.05 1.08 1.12 1.16 1.10 1.09 1.19 1.26 1.21 1.17 1.25 1.59 1.69 1.40 1.01 0.92 1.01 1.05 1.05 1.02 1.08 1.26 1.23 1.32 1.37 1.44 1.57 1.70 1.75 1.71 1.40 1.15 1.04 1.21 1.36 1.38 1.45 1.37
0.46 0.58 0.61 0.71 0.85 0.92 0.98 1.03 1.04 0.97 0.95 1.05 1.09 1.00 0.94 0.98 1.30 1.44 1.24 0.89 0.84 0.89 0.93 0.95 0.93 0.94 1.10 1.28 1.32 1.21 1.14 1.24 1.46 1.63 1.76 1.58 1.39 1.37 1.58 1.78 1.83 1.81 1.66
0.40 0.50 0.56 0.64 0.79 0.80 0.87 0.97 0.96 0.97 0.94 0.92 0.91 0.86 0.80 0.81 1.07 1.35 1.23 0.85 0.88 0.89 0.90 0.95 0.90 0.84 1.11 1.30 1.29 1.20 1.08 1.08 1.20 1.48 1.65 1.69 1.70 1.79 1.96 2.23 2.36 2.40 2.24
0.39 0.45 0.49 0.54 0.68 0.69 0.71 0.77 0.82 0.84 0.86 0.87 0.85 0.79 0.76 0.73 0.90 1.27 1.31 0.90 0.88 0.87 0.87 0.93 1.05 1.04 1.18 1.25 1.17 1.19 1.22 1.07 0.96 1.04 1.14 1.22 1.26 1.36 1.68 1.93 2.18 2.41 2.37
0.33 0.39 0.44 0.48 0.55 0.57 0.61 0.65 0.70 0.74 0.78 0.83 0.83 0.77 0.69 0.69 0.77 1.05 1.39 1.13 0.93 0.85 0.86 0.91 0.95 1.10 1.14 1.19 1.22 1.20 1.31 1.15 0.97 1.03 1.06 1.05 1.08 1.17 1.33 1.57 1.91 2.21 2.39
0.31 0.37 0.41 0.46 0.48 0.51 0.55 0.60 0.62 0.70 0.80 0.83 0.81 0.79 0.72 0.69 0.74 0.92 1.19 1.30 1.14 0.94 0.89 0.77 0.80 0.97 1.02 1.12 1.14 1.19 1.23 1.19 1.11 1.13 1.12 1.08 1.09 1.16 1.26 1.38 1.60 1.85 2.02
0.31 0.35 0.42 0.45 0.43 0.50 0.56 0.63 0.66 0.72 0.81 0.84 0.80 0.77 0.76 0.74 0.81 1.00 1.02 1.08 1.16 1.03 0.97 0.98 0.90 0.95 0.98 0.94 0.98 1.09 1.11 1.05 1.14 1.14 1.05 0.99 1.00 1.08 1.14 1.24 1.33 1.52 1.71
0.30 0.34 0.40 0.47 0.48 0.47 0.53 0.61 0.66 0.70 0.84 0.90 0.87 0.84 0.77 0.76 0.88 1.11 1.05 0.98 1.07 1.07 1.05 1.03 0.99 0.99 0.97 0.91 0.92 0.93 0.92 0.97 1.06 1.05 0.95 0.87 0.87 0.98 1.10 1.21 1.32 1.42 1.61
0.29 0.33 0.39 0.48 0.52 0.48 0.50 0.56 0.63 0.65 0.85 1.02 0.96 0.96 0.95 0.96 1.05 1.27 1.27 1.20 1.22 1.23 1.22 1.19 1.11 1.07 1.05 0.96 0.90 0.86 0.88 0.94 0.99 0.92 0.89 0.88 0.89 0.95 1.04 1.12 1.30 1.41 1.55
0.34 0.37 0.41 0.49 0.52 0.50 0.50 0.55 0.62 0.65 0.72 0.76 0.83 0.93 0.92 1.02 1.09 1.06 1.14 1.18 1.21 1.25 1.28 1.23 1.04 0.93 0.91 0.87 0.85 0.85 0.83 0.82 0.81 0.84 0.88 0.87 0.90 0.95 0.99 1.04 1.21 1.37 1.44
0.38 0.42 0.46 0.50 0.51 0.52 0.50 0.53 0.60 0.58 0.60 0.64 0.70 0.78 0.90 0.99 0.95 0.94 1.00 1.03 1.04 1.04 1.02 0.92 0.84 0.83 0.82 0.80 0.79 0.79 0.80 0.74 0.73 0.80 0.82 0.82 0.86 0.91 0.95 0.99 1.07 1.20 1.28
0.38 0.44 0.49 0.51 0.51 0.50 0.48 0.50 0.55 0.61 0.67 0.69 0.74 0.81 0.89 0.94 0.93 0.93 0.99 1.04 1.03 0.95 0.83 0.80 0.79 0.78 0.77 0.79 0.80 0.80 0.78 0.75 0.78 0.81 0.81 0.81 0.86 0.93 0.96 0.94 0.98 1.09 1.17
0.41 0.45 0.50 0.51 0.50 0.46 0.45 0.48 0.51 0.56 0.64 0.74 0.81 0.88 0.95 0.95 0.92 0.93 0.94 0.91 0.89 0.85 0.80 0.77 0.74 0.74 0.77 0.81 0.83 0.81 0.82 0.81 0.79 0.82 0.82 0.82 0.83 0.90 0.91 0.85 0.88 1.00 1.13
0.45 0.54 0.58 0.55 0.52 0.48 0.47 0.51 0.53 0.57 0.64 0.71 0.80 0.86 0.98 1.03 0.97 0.94 0.86 0.81 0.85 0.85 0.82 0.80 0.75 0.73 0.79 0.85 0.89 0.89 0.89 0.84 0.82 0.82 0.79 0.76 0.77 0.81 0.83 0.80 0.82 0.90 0.98
0.49 0.53 0.59 0.58 0.56 0.55 0.57 0.58 0.59 0.63 0.68 0.71 0.75 0.85 1.09 1.10 0.94 0.81 0.76 0.75 0.79 0.84 0.83 0.82 0.81 0.82 0.84 0.88 0.88 0.88 0.88 0.84 0.80 0.81 0.81 0.77 0.75 0.76 0.75 0.77 0.78 0.81 0.87
0.52 0.54 0.53 0.56 0.60 0.64 0.67 0.65 0.66 0.68 0.69 0.73 0.75 0.80 0.90 0.85 0.78 0.74 0.72 0.71 0.72 0.76 0.81 0.88 0.87 0.83 0.85 0.90 0.92 0.90 0.85 0.79 0.73 0.74 0.76 0.74 0.73 0.72 0.71 0.73 0.73 0.76 0.81
0.56 0.59 0.58 0.58 0.62 0.70 0.69 0.63 0.66 0.69 0.73 0.77 0.77 0.79 0.78 0.78 0.75 0.72 0.72 0.72 0.72 0.71 0.74 0.83 0.86 0.80 0.76 0.79 0.83 0.87 0.86 0.77 0.69 0.70 0.77 0.77 0.72 0.68 0.69 0.69 0.67 0.72 0.76
0.58 0.59 0.61 0.64 0.67 0.68 0.68 0.68 0.69 0.71 0.78 0.84 0.83 0.81 0.80 0.79 0.76 0.71 0.69 0.70 0.71 0.69 0.71 0.77 0.78 0.75 0.72 0.74 0.76 0.75 0.75 0.76 0.77 0.76 0.75 0.76 0.72 0.68 0.69 0.70 0.68 0.68 0.71
0.58 0.59 0.62 0.69 0.73 0.72 0.73 0.73 0.73 0.75 0.80 0.85 0.86 0.84 0.80 0.78 0.74 0.71 0.67 0.68 0.71 0.71 0.69 0.71 0.73 0.73 0.70 0.68 0.70 0.72 0.80 0.88 0.93 0.99 1.06 1.04 0.91 0.77 0.75 0.75 0.71 0.68 0.70
0.57 0.59 0.64 0.72 0.78 0.78 0.79 0.80 0.77 0.79 0.85 0.86 0.84 0.84 0.82 0.80 0.76 0.74 0.73 0.72 0.76 0.74 0.71 0.68 0.67 0.71 0.71 0.68 0.69 0.75 0.83 0.89 1.00 1.19 1.36 1.38 1.12 0.87 0.77 0.77 0.70 0.69 0.71

GEFSGL_prec_meanprecacc_246.txt.gz
Total_Precipitation_Accumulation
0.68 0.71 0.77 0.87 0.85 0.84 0.81 0.76 0.72 0.73 0.80 0.82 0.82 0.88 0.92 0.94 0.95 1.02 1.01 0.97 0.95 0.92 0.88 0.90 0.91 0.94 1.01 1.00 0.97 0.94 0.91 0.99 1.01 0.53 0.38 0.42 0.52 0.56 0.56 0.53 0.48 0.47 0.49
0.69 0.71 0.73 0.84 0.92 0.90 0.94 0.92 0.82 0.74 0.76 0.82 0.86 0.88 0.96 1.01 1.00 1.04 1.08 1.09 1.13 1.10 1.01 0.97 0.97 0.98 1.05 1.08 1.15 1.12 1.03 0.96 1.02 0.82 0.53 0.51 0.61 0.67 0.69 0.67 0.62 0.56 0.51
0.69 0.73 0.76 0.80 0.89 0.91 0.94 1.01 1.00 0.97 0.98 0.98 1.01 1.05 1.09 1.13 1.17 1.19 1.21 1.27 1.33 1.33 1.27 1.22 1.12 1.09 1.14 1.12 1.16 1.19 1.12 1.04 1.00 0.96 0.74 0.64 0.66 0.68 0.76 0.77 0.75 0.73 0.66
0.66 0.77 0.79 0.82 0.83 0.87 0.92 0.98 1.10 1.18 1.26 1.31 1.29 1.29 1.30 1.36 1.48 1.56 1.54 1.54 1.50 1.47 1.44 1.41 1.35 1.28 1.26 1.26 1.28 1.23 1.17 1.18 1.13 1.10 0.96 0.82 0.79 0.75 0.84 0.90 0.92 0.88 0.82
0.62 0.72 0.78 0.84 0.94 1.00 1.03 1.06 1.10 1.24 1.33 1.34 1.37 1.39 1.38 1.55 1.84 1.96 1.81 1.61 1.48 1.41 1.35 1.34 1.38 1.47 1.48 1.52 1.59 1.47 1.37 1.41 1.36 1.29 1.15 0.96 0.85 0.87 0.92 0.93 1.05 1.01 0.96
0.60 0.67 0.74 0.88 0.99 1.11 1.14 1.19 1.21 1.26 1.35 1.37 1.35 1.37 1.34 1.45 1.86 1.98 1.62 1.30 1.23 1.28 1.28 1.20 1.19 1.35 1.42 1.49 1.62 1.62 1.62 1.67 1.66 1.55 1.38 1.19 0.95 0.89 0.97 1.13 1.25 1.34 1.26
0.51 0.62 0.69 0.82 0.95 1.05 1.08 1.12 1.16 1.10 1.09 1.19 1.26 1.21 1.17 1.25 1.59 1.69 1.40 1.01 0.92 1.01 1.06 1.05 1.02 1.08 1.27 1.24 1.33 1.38 1.45 1.58 1.72 1.76 1.72 1.41 1.16 1.05 1.22 1.38 1.40 1.47 1.39
0.46 0.59 0.62 0.71 0.86 0.92 0.98 1.03 1.04 0.98 0.95 1.06 1.09 1.01 0.94 0.98 1.30 1.44 1.24 0.89 0.84 0.89 0.94 0.95 0.93 0.94 1.10 1.28 1.32 1.21 1.14 1.25 1.47 1.63 1.77 1.60 1.41 1.39 1.60 1.81 1.85 1.83 1.68
0.41 0.50 0.56 0.64 0.79 0.81 0.87 0.97 0.96 0.97 0.94 0.92 0.92 0.87 0.80 0.81 1.08 1.36 1.24 0.85 0.88 0.89 0.90 0.95 0.91 0.85 1.12 1.31 1.30 1.21 1.09 1.09 1.21 1.49 1.65 1.70 1.72 1.81 1.98 2.26 2.39 2.42 2.26
0.40 0.46 0.50 0.54 0.68 0.70 0.71 0.78 0.82 0.84 0.87 0.88 0.85 0.80 0.77 0.73 0.91 1.27 1.31 0.91 0.88 0.87 0.88 0.93 1.06 1.04 1.19 1.26 1.18 1.20 1.23 1.08 0.97 1.04 1.15 1.23 1.27 1.37 1.69 1.95 2.20 2.44 2.39
0.34 0.40 0.45 0.49 0.56 0.59 0.62 0.65 0.70 0.75 0.79 0.83 0.84 0.77 0.69 0.70 0.77 1.05 1.39 1.14 0.94 0.86 0.87 0.92 0.96 1.11 1.15 1.21 1.24 1.22 1.32 1.16 0.98 1.03 1.07 1.05 1.08 1.18 1.34 1.58 1.93 2.23 2.42
0.32 0.38 0.42 0.47 0.50 0.53 0.57 0.63 0.64 0.72 0.82 0.84 0.82 0.80 0.73 0.69 0.75 0.93 1.20 1.30 1.14 0.95 0.90 0.79 0.82 0.99 1.04 1.14 1.16 1.21 1.25 1.20 1.12 1.14 1.12 1.09 1.10 1.17 1.26 1.38 1.61 1.86 2.04
0.32 0.36 0.43 0.46 0.45 0.52 0.59 0.66 0.69 0.74 0.83 0.85 0.81 0.79 0.77 0.75 0.81 1.01 1.03 1.09 1.17 1.04 0.98 1.01 0.93 0.97 1.00 0.98 1.02 1.12 1.13 1.06 1.15 1.15 1.06 1.00 1.00 1.09 1.15 1.24 1.34 1.53 1.73
0.31 0.35 0.41 0.48 0.49 0.49 0.56 0.64 0.69 0.74 0.87 0.92 0.89 0.85 0.78 0.77 0.90 1.12 1.06 0.99 1.08 1.08 1.07 1.05 1.01 1.01 1.00 0.95 0.96 0.96 0.94 0.98 1.07 1.06 0.96 0.87 0.88 0.99 1.11 1.22 1.33 1.43 1.63
0.30 0.34 0.40 0.50 0.54 0.51 0.53 0.59 0.66 0.69 0.89 1.06 0.98 0.98 0.96 0.97 1.07 1.28 1.28 1.21 1.23 1.24 1.24 1.21 1.12 1.08 1.07 0.98 0.92 0.87 0.89 0.95 0.99 0.93 0.90 0.89 0.89 0.96 1.05 1.13 1.31 1.42 1.56
0.35 0.38 0.42 0.51 0.54 0.53 0.53 0.57 0.65 0.68 0.75 0.79 0.86 0.95 0.94 1.04 1.11 1.08 1.15 1.20 1.22 1.27 1.29 1.24 1.05 0.95 0.93 0.89 0.87 0.86 0.83 0.82 0.81 0.85 0.89 0.88 0.91 0.96 1.00 1.05 1.22 1.39 1.45
0.39 0.43 0.47 0.52 0.53 0.54 0.52 0.55 0.61 0.60 0.62 0.66 0.72 0.81 0.92 1.01 0.96 0.95 1.02 1.04 1.05 1.05 1.03 0.93 0.85 0.85 0.83 0.82 0.81 0.80 0.81 0.74 0.74 0.81 0.84 0.83 0.87 0.93 0.97 1.01 1.08 1.22 1.29
0.39 0.46 0.51 0.52 0.53 0.52 0.50 0.51 0.57 0.62 0.68 0.71 0.76 0.82 0.90 0.96 0.95 0.95 1.01 1.05 1.05 0.96 0.84 0.81 0.80 0.79 0.79 0.80 0.81 0.81 0.79 0.77 0.79 0.82 0.82 0.83 0.87 0.95 0.97 0.96 0.99 1.10 1.18
0.43 0.47 0.51 0.53 0.52 0.49 0.48 0.50 0.52 0.57 0.66 0.76 0.82 0.89 0.96 0.96 0.94 0.95 0.95 0.92 0.90 0.87 0.82 0.78 0.75 0.75 0.78 0.82 0.84 0.83 0.84 0.83 0.80 0.83 0.84 0.83 0.85 0.92 0.93 0.86 0.89 1.02 1.14
0.46 0.56 0.60 0.57 0.55 0.51 0.50 0.53 0.55 0.60 0.66 0.73 0.83 0.89 1.00 1.04 0.98 0.96 0.87 0.83 0.87 0.86 0.83 0.82 0.77 0.75 0.81 0.86 0.90 0.90 0.90 0.86 0.83 0.84 0.80 0.77 0.79 0.83 0.85 0.82 0.84 0.92 0.99
0.51 0.54 0.61 0.60 0.58 0.57 0.59 0.60 0.61 0.65 0.71 0.73 0.77 0.87 1.12 1.13 0.97 0.83 0.79 0.77 0.81 0.86 0.85 0.84 0.83 0.83 0.85 0.89 0.90 0.89 0.90 0.85 0.82 0.83 0.82 0.78 0.77 0.78 0.77 0.79 0.80 0.83 0.88
0.54 0.56 0.55 0.57 0.62 0.66 0.69 0.67 0.68 0.70 0.72 0.76 0.78 0.83 0.93 0.87 0.80 0.76 0.74 0.73 0.74 0.78 0.83 0.90 0.89 0.84 0.86 0.91 0.93 0.91 0.86 0.80 0.74 0.75 0.78 0.76 0.75 0.74 0.73 0.75 0.75 0.78 0.82
0.58 0.60 0.59 0.60 0.64 0.71 0.71 0.65 0.68 0.71 0.76 0.80 0.80 0.82 0.81 0.80 0.78 0.74 0.74 0.74 0.74 0.73 0.76 0.84 0.87 0.81 0.77 0.80 0.84 0.88 0.87 0.79 0.71 0.72 0.79 0.79 0.74 0.70 0.71 0.71 0.69 0.73 0.78
0.60 0.60 0.62 0.66 0.68 0.69 0.70 0.69 0.70 0.73 0.80 0.86 0.86 0.84 0.83 0.81 0.79 0.73 0.70 0.72 0.72 0.71 0.72 0.78 0.79 0.76 0.73 0.75 0.76 0.76 0.76 0.77 0.79 0.78 0.78 0.78 0.74 0.69 0.71 0.72 0.70 0.69 0.73
0.59 0.61 0.64 0.71 0.75 0.74 0.76 0.75 0.75 0.77 0.82 0.87 0.88 0.86 0.83 0.80 0.76 0.72 0.69 0.69 0.72 0.72 0.70 0.72 0.74 0.74 0.71 0.69 0.71 0.73 0.81 0.89 0.94 1.01 1.08 1.07 0.93 0.79 0.77 0.76 0.73 0.69 0.71
0.58 0.61 0.66 0.74 0.80 0.80 0.81 0.82 0.79 0.80 0.87 0.88 0.86 0.86 0.84 0.82 0.78 0.76 0.74 0.74 0.77 0.76 0.72 0.68 0.68 0.72 0.72 0.69 0.70 0.76 0.84 0.90 1.01 1.21 1.38 1.41 1.15 0.88 0.78 0.79 0.72 0.70 0.73

GEFSGL_prec_meanprecacc_252.txt.gz
Total_Precipitation_Accumulation
0.70 0.72 0.78 0.88 0.86 0.85 0.82 0.77 0.73 0.74 0.82 0.84 0.83 0.88 0.92 0.94 0.96 1.02 1.01 0.97 0.95 0.92 0.89 0.90 0.91 0.94 1.01 1.01 0.97 0.94 0.91 1.00 1.02 0.53 0.38 0.42 0.52 0.56 0.56 0.53 0.48 0.47 0.50
0.70 0.72 0.74 0.85 0.93 0.91 0.95 0.94 0.83 0.76 0.77 0.84 0.87 0.89 0.97 1.01 1.00 1.04 1.08 1.09 1.14 1.10 1.01 0.97 0.97 0.99 1.05 1.08 1.15 1.12 1.03 0.96 1.03 0.82 0.53 0.51 0.61 0.67 0.69 0.67 0.62 0.56 0.52
0.69 0.73 0.76 0.80 0.89 0.92 0.94 1.02 1.01 0.98 1.00 0.99 1.03 1.06 1.10 1.14 1.17 1.19 1.22 1.27 1.33 1.33 1.27 1.22 1.12 1.09 1.14 1.12 1.17 1.19 1.12 1.04 1.01 0.97 0.75 0.64 0.67 0.68 0.76 0.78 0.76 0.73 0.67
0.67 0.78 0.79 0.82 0.84 0.87 0.93 0.98 1.11 1.19 1.27 1.32 1.30 1.30 1.31 1.36 1.48 1.56 1.55 1.54 1.51 1.47 1.44 1.41 1.35 1.28 1.26 1.26 1.28 1.23 1.18 1.19 1.14 1.11 0.97 0.82 0.80 0.75 0.84 0.90 0.93 0.89 0.83
0.63 0.73 0.78 0.84 0.94 1.01 1.04 1.06 1.11 1.24 1.33 1.35 1.38 1.40 1.38 1.55 1.85 1.96 1.81 1.61 1.48 1.41 1.35 1.34 1.38 1.47 1.48 1.52 1.59 1.48 1.38 1.42 1.36 1.30 1.15 0.96 0.86 0.87 0.93 0.94 1.05 1.01 0.97
0.60 0.67 0.74 0.88 0.99 1.12 1.15 1.20 1.21 1.27 1.36 1.37 1.35 1.37 1.35 1.45 1.86 1.98 1.62 1.30 1.23 1.28 1.28 1.20 1.19 1.35 1.42 1.49 1.62 1.62 1.63 1.67 1.66 1.56 1.39 1.20 0.95 0.90 0.97 1.13 1.26 1.35 1.27
0.52 0.63 0.69 0.83 0.95 1.05 1.09 1.13 1.16 1.11 1.09 1.19 1.26 1.22 1.18 1.26 1.60 1.70 1.40 1.01 0.92 1.01 1.06 1.05 1.02 1.08 1.27 1.24 1.33 1.38 1.45 1.58 1.72 1.77 1.73 1.42 1.17 1.05 1.23 1.39 1.41 1.48 1.40
0.46 0.59 0.62 0.72 0.86 0.92 0.99 1.03 1.05 0.98 0.96 1.06 1.09 1.01 0.94 0.99 1.31 1.44 1.24 0.89 0.84 0.89 0.94 0.95 0.93 0.95 1.10 1.28 1.33 1.22 1.14 1.25 1.48 1.64 1.77 1.60 1.41 1.39 1.60 1.82 1.87 1.84 1.69
0.41 0.51 0.56 0.64 0.80 0.81 0.87 0.98 0.97 0.98 0.96 0.94 0.93 0.88 0.81 0.82 1.08 1.36 1.24 0.85 0.88 0.89 0.90 0.96 0.91 0.85 1.12 1.32 1.30 1.21 1.09 1.09 1.21 1.49 1.66 1.70 1.72 1.81 1.99 2.27 2.41 2.44 2.27
0.40 0.47 0.50 0.55 0.69 0.70 0.72 0.79 0.83 0.86 0.88 0.89 0.87 0.81 0.78 0.75 0.92 1.29 1.32 0.92 0.89 0.87 0.88 0.94 1.06 1.05 1.19 1.26 1.18 1.21 1.23 1.08 0.97 1.05 1.15 1.24 1.28 1.37 1.69 1.97 2.23 2.46 2.40
0.35 0.40 0.45 0.50 0.57 0.59 0.63 0.66 0.71 0.76 0.80 0.85 0.85 0.78 0.71 0.71 0.79 1.07 1.41 1.15 0.95 0.87 0.87 0.92 0.96 1.11 1.15 1.21 1.24 1.22 1.32 1.17 0.98 1.04 1.07 1.06 1.09 1.18 1.35 1.59 1.94 2.26 2.45
0.32 0.38 0.42 0.47 0.50 0.53 0.58 0.63 0.65 0.73 0.83 0.86 0.83 0.81 0.74 0.70 0.76 0.94 1.21 1.32 1.16 0.96 0.90 0.80 0.83 1.00 1.05 1.15 1.17 1.22 1.26 1.21 1.13 1.14 1.13 1.09 1.10 1.17 1.27 1.39 1.62 1.88 2.06
0.32 0.37 0.43 0.47 0.45 0.53 0.59 0.66 0.69 0.75 0.84 0.86 0.82 0.80 0.78 0.77 0.83 1.02 1.04 1.09 1.18 1.05 0.99 1.01 0.93 0.98 1.01 0.98 1.03 1.13 1.13 1.07 1.15 1.16 1.06 1.01 1.01 1.10 1.15 1.25 1.34 1.54 1.74
0.32 0.35 0.41 0.49 0.49 0.50 0.56 0.65 0.70 0.74 0.88 0.94 0.90 0.87 0.80 0.78 0.90 1.12 1.07 1.00 1.09 1.09 1.07 1.05 1.02 1.02 1.01 0.96 0.96 0.96 0.94 0.99 1.08 1.07 0.96 0.88 0.89 0.99 1.12 1.23 1.34 1.44 1.63
0.31 0.34 0.40 0.50 0.54 0.51 0.54 0.60 0.67 0.70 0.91 1.08 1.01 1.01 0.98 0.99 1.08 1.29 1.29 1.22 1.24 1.25 1.24 1.22 1.14 1.10 1.08 0.99 0.92 0.88 0.90 0.96 1.00 0.94 0.91 0.90 0.90 0.96 1.06 1.14 1.32 1.43 1.57
0.36 0.39 0.43 0.51 0.54 0.53 0.54 0.58 0.67 0.70 0.77 0.81 0.89 0.98 0.96 1.06 1.12 1.09 1.16 1.21 1.24 1.28 1.31 1.26 1.07 0.97 0.95 0.90 0.88 0.87 0.85 0.84 0.83 0.87 0.90 0.90 0.92 0.97 1.02 1.06 1.23 1.40 1.46
0.40 0.44 0.48 0.52 0.54 0.55 0.53 0.56 0.63 0.62 0.64 0.68 0.75 0.83 0.95 1.04 0.99 0.98 1.04 1.06 1.08 1.07 1.05 0.95 0.88 0.87 0.85 0.83 0.82 0.82 0.82 0.76 0.76 0.83 0.85 0.85 0.89 0.95 0.98 1.02 1.09 1.22 1.30
0.41 0.47 0.52 0.53 0.54 0.54 0.52 0.53 0.59 0.64 0.70 0.73 0.78 0.84 0.92 0.99 0.98 0.98 1.04 1.09 1.08 0.99 0.87 0.83 0.82 0.81 0.81 0.82 0.83 0.83 0.80 0.78 0.81 0.84 0.85 0.85 0.89 0.97 0.98 0.96 1.00 1.11 1.19
0.44 0.48 0.53 0.54 0.54 0.50 0.50 0.52 0.54 0.58 0.66 0.76 0.83 0.90 0.97 0.97 0.96 0.97 0.98 0.94 0.93 0.89 0.84 0.80 0.77 0.77 0.80 0.84 0.86 0.84 0.85 0.84 0.82 0.85 0.85 0.84 0.86 0.93 0.94 0.87 0.90 1.03 1.15
0.48 0.57 0.62 0.59 0.56 0.53 0.52 0.55 0.57 0.60 0.66 0.74 0.83 0.89 1.00 1.05 0.99 0.97 0.89 0.84 0.89 0.89 0.86 0.84 0.79 0.77 0.83 0.88 0.92 0.92 0.92 0.87 0.84 0.85 0.81 0.78 0.79 0.84 0.86 0.83 0.85 0.93 1.00
0.53 0.57 0.63 0.62 0.60 0.59 0.61 0.61 0.62 0.67 0.72 0.74 0.78 0.88 1.12 1.14 0.98 0.84 0.80 0.78 0.83 0.87 0.87 0.86 0.85 0.85 0.87 0.91 0.91 0.90 0.91 0.86 0.83 0.83 0.83 0.79 0.78 0.79 0.78 0.80 0.81 0.83 0.89
0.57 0.58 0.57 0.59 0.64 0.67 0.70 0.69 0.69 0.71 0.73 0.77 0.79 0.84 0.94 0.89 0.82 0.77 0.75 0.75 0.76 0.80 0.85 0.92 0.90 0.86 0.88 0.93 0.95 0.92 0.87 0.81 0.75 0.76 0.79 0.77 0.76 0.75 0.75 0.76 0.76 0.79 0.83
0.60 0.62 0.61 0.61 0.65 0.73 0.72 0.66 0.69 0.73 0.77 0.81 0.82 0.83 0.83 0.82 0.79 0.76 0.76 0.76 0.75 0.74 0.77 0.86 0.88 0.82 0.79 0.81 0.86 0.90 0.89 0.80 0.72 0.73 0.81 0.80 0.75 0.71 0.72 0.73 0.70 0.74 0.79
0.61 0.62 0.64 0.67 0.70 0.70 0.71 0.70 0.71 0.74 0.81 0.87 0.87 0.86 0.85 0.84 0.81 0.75 0.72 0.73 0.73 0.72 0.74 0.79 0.81 0.77 0.74 0.76 0.77 0.77 0.77 0.78 0.80 0.80 0.79 0.80 0.76 0.71 0.72 0.73 0.71 0.70 0.74
0.60 0.62 0.66 0.72 0.76 0.75 0.77 0.76 0.76 0.78 0.83 0.88 0.90 0.88 0.84 0.81 0.77 0.74 0.70 0.71 0.73 0.73 0.71 0.73 0.76 0.75 0.72 0.70 0.72 0.74 0.82 0.90 0.96 1.03 1.10 1.09 0.95 0.81 0.78 0.78 0.74 0.70 0.72
0.59 0.62 0.67 0.75 0.81 0.81 0.82 0.83 0.80 0.81 0.88 0.89 0.87 0.87 0.85 0.83 0.79 0.77 0.76 0.75 0.78 0.77 0.73 0.70 0.69 0.73 0.73 0.70 0.71 0.78 0.86 0.91 1.03 1.23 1.41 1.43 1.17 0.90 0.80 0.81 0.74 0.72 0.74

GEFSGL_prec_meanprecacc_258.txt.gz
Total_Precipitation_Accumulation
0.75 0.78 0.83 0.92 0.90 0.88 0.86 0.80 0.76 0.77 0.84 0.87 0.87 0.91 0.94 0.95 0.97 1.02 1.02 0.98 0.96 0.93 0.90 0.92 0.92 0.95 1.02 1.01 0.97 0.94 0.91 1.00 1.02 0.53 0.38 0.42 0.52 0.56 0.56 0.53 0.48 0.47 0.50
0.74 0.77 0.79 0.90 0.97 0.94 0.99 0.96 0.86 0.78 0.80 0.86 0.91 0.93 1.01 1.04 1.02 1.06 1.10 1.10 1.14 1.11 1.02 0.99 0.98 0.99 1.05 1.08 1.15 1.13 1.03 0.97 1.03 0.82 0.53 0.51 0.61 0.67 0.69 0.67 0.62 0.56 0.52
0.71 0.76 0.80 0.85 0.94 0.95 0.98 1.04 1.03 1.00 1.02 1.01 1.05 1.09 1.13 1.18 1.21 1.23 1.25 1.30 1.35 1.34 1.28 1.23 1.13 1.10 1.15 1.13 1.17 1.19 1.13 1.05 1.01 0.97 0.75 0.64 0.67 0.68 0.76 0.78 0.76 0.73 0.67
0.68 0.80 0.82 0.85 0.87 0.91 0.96 1.00 1.12 1.20 1.28 1.34 1.32 1.32 1.33 1.39 1.52 1.60 1.59 1.58 1.55 1.50 1.46 1.43 1.36 1.28 1.27 1.26 1.28 1.23 1.18 1.19 1.14 1.11 0.97 0.82 0.80 0.76 0.84 0.91 0.93 0.89 0.83
0.64 0.74 0.81 0.87 0.96 1.03 1.05 1.08 1.12 1.25 1.34 1.36 1.40 1.42 1.40 1.57 1.88 2.00 1.85 1.64 1.51 1.44 1.39 1.37 1.41 1.49 1.49 1.52 1.59 1.48 1.38 1.42 1.37 1.31 1.16 0.97 0.86 0.88 0.93 0.94 1.05 1.01 0.97
0.62 0.69 0.76 0.90 1.01 1.13 1.16 1.21 1.22 1.28 1.37 1.38 1.36 1.38 1.36 1.47 1.88 2.00 1.64 1.32 1.25 1.30 1.30 1.22 1.21 1.37 1.43 1.50 1.62 1.62 1.63 1.68 1.67 1.56 1.40 1.20 0.96 0.90 0.98 1.14 1.27 1.35 1.28
0.53 0.64 0.71 0.85 0.97 1.06 1.09 1.13 1.17 1.12 1.11 1.20 1.27 1.22 1.19 1.27 1.62 1.72 1.42 1.02 0.93 1.02 1.07 1.06 1.04 1.10 1.28 1.25 1.33 1.38 1.46 1.59 1.73 1.78 1.74 1.42 1.17 1.06 1.24 1.40 1.42 1.49 1.40
0.47 0.60 0.64 0.74 0.87 0.93 0.99 1.04 1.05 0.99 0.97 1.08 1.11 1.03 0.95 1.00 1.32 1.47 1.27 0.91 0.85 0.91 0.95 0.96 0.94 0.95 1.11 1.29 1.33 1.22 1.14 1.25 1.48 1.64 1.77 1.60 1.41 1.39 1.61 1.83 1.87 1.85 1.69
0.41 0.51 0.58 0.66 0.81 0.82 0.88 0.98 0.98 0.99 0.96 0.94 0.94 0.89 0.82 0.83 1.10 1.39 1.27 0.88 0.90 0.91 0.91 0.97 0.92 0.86 1.13 1.32 1.31 1.21 1.09 1.09 1.21 1.49 1.66 1.70 1.72 1.81 1.99 2.27 2.41 2.45 2.27
0.40 0.47 0.51 0.57 0.70 0.71 0.72 0.79 0.84 0.86 0.89 0.90 0.87 0.82 0.80 0.76 0.94 1.31 1.35 0.94 0.92 0.89 0.89 0.95 1.07 1.05 1.20 1.27 1.19 1.21 1.23 1.08 0.97 1.05 1.15 1.24 1.28 1.37 1.69 1.97 2.24 2.48 2.41
0.35 0.40 0.46 0.51 0.57 0.60 0.64 0.67 0.72 0.76 0.81 0.85 0.85 0.79 0.72 0.73 0.81 1.09 1.43 1.17 0.97 0.89 0.90 0.95 0.98 1.13 1.17 1.23 1.25 1.23 1.33 1.17 0.98 1.04 1.07 1.06 1.09 1.18 1.35 1.59 1.95 2.28 2.47
0.32 0.38 0.43 0.48 0.50 0.54 0.58 0.64 0.66 0.74 0.83 0.86 0.84 0.82 0.75 0.71 0.77 0.96 1.23 1.33 1.17 0.97 0.92 0.82 0.85 1.02 1.06 1.16 1.18 1.23 1.27 1.22 1.13 1.14 1.13 1.09 1.10 1.17 1.27 1.39 1.62 1.88 2.07
0.33 0.37 0.43 0.47 0.45 0.53 0.60 0.67 0.70 0.76 0.85 0.87 0.83 0.81 0.79 0.77 0.84 1.03 1.05 1.10 1.19 1.06 1.00 1.02 0.94 0.99 1.02 1.00 1.04 1.14 1.15 1.08 1.16 1.17 1.07 1.01 1.02 1.10 1.16 1.25 1.35 1.54 1.74
0.32 0.36 0.42 0.49 0.50 0.50 0.57 0.65 0.70 0.75 0.89 0.94 0.91 0.88 0.80 0.79 0.91 1.13 1.08 1.01 1.10 1.10 1.08 1.06 1.03 1.03 1.02 0.97 0.98 0.98 0.95 0.99 1.09 1.08 0.97 0.89 0.89 1.00 1.12 1.23 1.34 1.44 1.64
0.32 0.35 0.41 0.51 0.55 0.52 0.54 0.60 0.67 0.70 0.91 1.08 1.01 1.01 0.99 1.00 1.09 1.30 1.31 1.24 1.25 1.26 1.26 1.23 1.15 1.11 1.09 1.01 0.94 0.89 0.90 0.96 1.01 0.94 0.92 0.91 0.91 0.97 1.06 1.15 1.33 1.44 1.58
0.37 0.40 0.44 0.52 0.55 0.54 0.54 0.58 0.67 0.70 0.77 0.82 0.90 0.99 0.97 1.08 1.14 1.11 1.18 1.23 1.25 1.30 1.33 1.28 1.09 0.98 0.96 0.91 0.89 0.88 0.85 0.84 0.83 0.87 0.91 0.90 0.93 0.98 1.02 1.07 1.24 1.40 1.47
0.41 0.45 0.49 0.53 0.55 0.56 0.53 0.57 0.64 0.63 0.64 0.69 0.76 0.84 0.96 1.05 1.01 1.00 1.06 1.08 1.10 1.09 1.07 0.97 0.90 0.88 0.86 0.84 0.83 0.83 0.83 0.76 0.77 0.84 0.86 0.86 0.90 0.96 1.00 1.03 1.10 1.23 1.31
0.42 0.48 0.53 0.54 0.55 0.55 0.52 0.54 0.60 0.65 0.71 0.74 0.79 0.86 0.94 1.01 1.00 1.00 1.06 1.10 1.10 1.01 0.88 0.84 0.84 0.83 0.82 0.84 0.85 0.84 0.82 0.79 0.82 0.85 0.86 0.87 0.91 0.98 1.00 0.98 1.01 1.12 1.20
0.46 0.51 0.55 0.56 0.56 0.52 0.51 0.54 0.56 0.60 0.68 0.78 0.84 0.91 0.98 0.98 0.96 0.98 0.99 0.96 0.95 0.91 0.86 0.82 0.79 0.78 0.82 0.86 0.88 0.86 0.87 0.86 0.84 0.87 0.88 0.87 0.88 0.95 0.96 0.89 0.91 1.04 1.16
0.51 0.60 0.64 0.61 0.58 0.55 0.54 0.56 0.59 0.63 0.68 0.75 0.84 0.90 1.01 1.06 1.00 0.98 0.90 0.85 0.90 0.90 0.87 0.86 0.80 0.78 0.84 0.90 0.94 0.94 0.94 0.89 0.86 0.87 0.84 0.81 0.82 0.86 0.88 0.84 0.86 0.95 1.01
0.56 0.60 0.65 0.64 0.61 0.61 0.62 0.63 0.64 0.69 0.74 0.75 0.79 0.89 1.13 1.14 0.98 0.85 0.81 0.80 0.84 0.89 0.89 0.88 0.87 0.87 0.90 0.94 0.94 0.93 0.94 0.89 0.86 0.87 0.86 0.82 0.80 0.81 0.80 0.81 0.82 0.84 0.90
0.60 0.61 0.59 0.61 0.65 0.69 0.72 0.70 0.71 0.73 0.75 0.78 0.79 0.85 0.95 0.89 0.83 0.78 0.76 0.76 0.77 0.81 0.86 0.93 0.92 0.88 0.90 0.96 0.98 0.96 0.91 0.84 0.78 0.79 0.82 0.79 0.78 0.76 0.75 0.77 0.77 0.79 0.84
0.64 0.66 0.63 0.63 0.67 0.74 0.73 0.68 0.71 0.74 0.78 0.82 0.82 0.84 0.83 0.83 0.80 0.77 0.77 0.77 0.76 0.75 0.78 0.87 0.90 0.84 0.80 0.84 0.89 0.93 0.93 0.83 0.74 0.76 0.83 0.82 0.77 0.73 0.73 0.74 0.71 0.75 0.80
0.64 0.65 0.66 0.69 0.71 0.72 0.72 0.72 0.73 0.75 0.82 0.88 0.88 0.87 0.86 0.85 0.82 0.76 0.73 0.74 0.74 0.73 0.75 0.80 0.82 0.79 0.76 0.78 0.80 0.80 0.80 0.81 0.83 0.82 0.82 0.82 0.78 0.72 0.73 0.74 0.72 0.71 0.75
0.63 0.64 0.68 0.74 0.78 0.77 0.78 0.77 0.77 0.79 0.84 0.89 0.91 0.89 0.86 0.82 0.79 0.75 0.71 0.72 0.74 0.74 0.72 0.74 0.77 0.77 0.73 0.71 0.74 0.76 0.84 0.92 0.98 1.05 1.13 1.12 0.97 0.83 0.79 0.79 0.75 0.71 0.74
0.61 0.64 0.69 0.77 0.82 0.82 0.84 0.84 0.81 0.82 0.89 0.90 0.89 0.89 0.87 0.85 0.80 0.78 0.77 0.76 0.80 0.78 0.74 0.71 0.71 0.74 0.75 0.72 0.72 0.79 0.87 0.93 1.04 1.24 1.43 1.46 1.19 0.92 0.81 0.82 0.75 0.73 0.76